Location: Howard City Library
(37.4684°N, 96.2639°W)
Time: 10:21:48
(UTC+00:00)

NOSS 3-1 (C) - Pass Details

Date: 18 February 2020
Orbit: 759 x 1449 km, 63.4° (Epoch: 26 March)

Event Time Altitude Azimuth Distance (km) Brightness Sun altitude
Exits shadow 11:04:00 45° 293° (WNW) 1,757 4.4 -25.9°
Maximum altitude 11:06:20 58° 244° (WSW) 1,563 4.2 -25.4°
Drops below altitude 10° 11:14:53 10° 168° (SSE) 3,538 6.5 -23.7°
Sets 11:17:57 0° 165° (SSE) 4,529 7.1 -23.1°
